Location: Unspecified
(48.2082°N, 0.0000°E)
Time: 21:17:15
(UTC+00:00)

Transit 2A - Visible Passes

Search period start: 24 June 2019 00:00
Search period end: 04 July 2019 00:00
Orbit: 593 x 966 km, 66.7° (Epoch: 23 June)

Date Brightness Start Highest point End Pass type
(mag) Time Alt. Az. Time Alt. Az. Time Alt. Az.
24 Jun 7.2 01:02:17 13° WSW 01:07:44 49° NW 01:13:44 10° NNE visible
24 Jun 8.6 02:48:11 10° WNW 02:52:27 18° NNW 02:56:35 10° NNE visible
24 Jun 7.3 22:48:07 24° SSE 22:50:31 31° ESE 22:55:55 10° NE visible
25 Jun 6.8 00:28:34 17° SW 00:33:31 63° NW 00:39:40 10° NNE visible
25 Jun 8.5 02:13:13 10° WNW 02:17:57 21° NNW 02:22:31 10° NNE visible
25 Jun 7.7 22:14:18 19° SE 22:16:37 23° ESE 22:21:23 10° ENE visible
25 Jun 6.5 23:54:44 20° SW 23:59:20 81° NW 00:05:34 10° NE visible
26 Jun 8.3 01:38:19 10° W 01:43:29 25° NNW 01:48:29 10° NNE visible
26 Jun 8.0 21:40:23 14° SE 21:42:47 17° ESE 21:46:32 10° ENE visible
26 Jun 6.4 23:20:49 22° SSW 23:25:12 78° ESE 23:31:26 10° NE visible
27 Jun 8.0 01:03:32 10° W 01:09:05 30° NW 01:14:27 10° NNE visible
27 Jun 8.9 02:51:09 10° NW 02:54:20 14° NNW 02:57:26 10° NNE visible
27 Jun 8.3 21:07:08 10° ESE 21:09:00 11° E 21:10:52 10° E visible
27 Jun 6.5 22:46:45 20° S 22:51:07 59° ESE 22:57:15 10° NE visible
28 Jun 7.7 00:28:52 10° WSW 00:34:44 37° NW 00:40:24 10° NNE visible
28 Jun 8.9 02:16:06 10° NW 02:19:44 16° NNW 02:23:15 10° NNE visible
28 Jun 6.8 22:12:30 17° S 22:17:07 44° ESE 22:22:59 10° NE visible
28 Jun 7.3 23:54:18 10° WSW 00:00:26 47° NW 00:06:21 10° NNE visible
29 Jun 8.8 01:41:05 10° WNW 01:45:11 18° NNW 01:49:09 10° NNE visible
29 Jun 7.2 21:38:00 12° S 21:43:09 33° ESE 21:48:37 10° NE visible
29 Jun 6.9 23:19:53 10° SW 23:26:11 60° NW 23:32:17 10° NNE visible
30 Jun 8.7 01:06:05 10° WNW 01:10:40 21° NNW 01:15:06 10° NNE visible
30 Jun 9.1 02:53:51 10° NNW 02:56:20 12° N 02:58:45 10° NNE visible
30 Jun 7.5 21:04:16 10° SSE 21:09:13 24° ESE 21:14:07 10° ENE visible
30 Jun 6.6 22:45:36 10° SW 22:52:00 77° NW 22:58:12 10° NNE visible
01 Jul 8.5 00:31:10 10° W 00:36:12 24° NNW 00:41:03 10° NNE visible
01 Jul 9.1 02:19:02 10° NNW 02:21:42 13° N 02:24:18 10° NNE visible
01 Jul 6.4 22:11:28 10° SSW 22:17:52 83° ESE 22:24:04 10° NE visible
01 Jul 8.2 23:56:21 10° W 00:01:47 29° NW 00:07:01 10° NNE visible
02 Jul 9.1 01:44:04 10° NW 01:47:05 14° NNW 01:50:00 10° NNE visible
02 Jul 6.5 21:37:29 10° SSW 21:43:46 63° ESE 21:49:53 10° NE visible
02 Jul 7.9 23:21:39 10° WSW 23:27:26 36° NW 23:32:59 10° NNE visible
03 Jul 9.1 01:09:01 10° NW 01:12:29 15° NNW 01:15:50 10° NNE visible
03 Jul 9.2 02:55:40 10° NNW 02:58:20 13° N 03:00:54 10° NE visible
03 Jul 6.7 21:03:41 10° S 21:09:44 47° ESE 21:15:38 10° NE visible
03 Jul 7.6 22:47:03 10° WSW 22:53:07 44° NW 22:58:57 10° NNE visible
